Regional Weather Roundup
Issued by NWS Grand Forks, ND

Home | Current Version | Previous Version | Text Only | Print | Product List | Glossary On
Versions: 1 2 3 4 5 6 7 8 9 10 11 12 13 14 15 16 17 18 19 20 21 22 23 24 25 26 27 28 29 30 31 32 33 34 35 36 37 38 39 40 41 42 43 44 45 46 47 48 49 50
000
ASUS43 KFGF 221231
RWRFGF
PRAIRIE TO PINES  WEATHER ROUNDUP
NATIONAL WEATHER SERVICE EASTERN NORTH DAKOTA/GRAND FORKS ND
600 AM CST MON JAN 22 2018

 **SATELLITE DATA USED TO AUGMENT SKY COVER AT AUTOMATED STATIONS**
 *****  WEATHER ACROSS EASTERN NORTH DAKOTA  *****

CITY           SKY/WX    TMP DP  RH WIND       PRES   REMARKS
GRAND FORKS    CLOUDY    24  22  91 N7        30.09F WCI  16
6HR MIN TEMP:  23; 6HR MAX TEMP:  24;

GRAND FRKS AFB CLOUDY   N/A N/A N/A NE6       30.10F
DEVILS LAKE    CLOUDY    22  21  96 E6        30.06S WCI  14
6HR MIN TEMP:  21; 6HR MAX TEMP:  22;

FARGO          CLOUDY    25  23  92 N15       30.02F WCI  13
WAHPETON ARPT  CLOUDY    27  23  86 NE9       30.00R WCI  17
$$

 ***** WEATHER ACROSS CENTRAL AND WESTERN NORTH DAKOTA  *****

CITY           SKY/WX    TMP DP  RH WIND       PRES   REMARKS
BISMARCK       FOG       18  16  92 E3        30.03S VSB 1/4
6HR MIN TEMP:  15; 6HR MAX TEMP:  19;

MINOT          FOG        8   5  87 NW5       30.01S VSB 1/4 WCI   0
6HR MIN TEMP:   6; 6HR MAX TEMP:  17;

JAMESTOWN      CLOUDY    22  20  92 NE13      30.01F WCI  10
6HR MIN TEMP:  22; 6HR MAX TEMP:  25;

MINOT AFB        N/A      7   4  85 CALM      30.01R VSB 3/8
GARRISON         N/A      4   1  88 CALM      30.00S
WILLISTON      FAIR       6   3  87 SW3       30.00S FOG
6HR MIN TEMP:   2; 6HR MAX TEMP:  15;

DICKINSON      FAIR      14  10  84 W8        29.95S WCI   3
6HR MIN TEMP:  14; 6HR MAX TEMP:  19;

HETTINGER      FAIR      13   9  84 NW7       29.98S WCI   3
6HR MIN TEMP:  10; 6HR MAX TEMP:  17;

$$

 *****  OTHER AIRPORT OBSERVATIONS IN OUR AREA  *****

CITY           SKY/WX    TMP DP  RH WIND       PRES   REMARKS
WALHALLA       FAIR      21  21 100 CALM      30.11R
GRAFTON AIRPOR NOT AVBL
VALLEY CITY AR NOT AVBL
CANDO          CLOUDY    23  23 100 E6        30.08R FOG     WCI  16
CAVALIER APRT    N/A     21  19  93 CALM      30.12R
GWINNER          N/A     21  21 100 N18       29.99F WCI   6
SHEYENNE NWR     N/A     23  23 100 NE14      29.95S WCI  11
ROLLA          FOG       21  21 100 MISG      30.04R VSB 1/4
 ***** THE ABOVE OBSERVATIONS ARE NON NWS ARE NOT QUALITY
       CONTROLLED AND MAY MIS-REPORT RAIN FOR SNOW...
$$

  *****  WEATHER ACROSS NORTHERN MINNESOTA  *****

CITY           SKY/WX    TMP DP  RH WIND       PRES   REMARKS
FLAG ISLAND    CLOUDY    19  18  93 CALM      30.13R
WARROAD        CLOUDY    21  18  86 NE6       30.12S FOG     WCI  14
ROSEAU         CLOUDY    25  19  80 NE5       30.11S HAZE    WCI  19
HALLOCK        CLOUDY    23  19  86 E3        30.13R
THF RVR FALLS  CLOUDY    23  21  92 N13       30.06F WCI  11
BAUDETTE       CLOUDY    23  21  92 E7        30.09R FOG     WCI  15
6HR MIN TEMP:  23; 6HR MAX TEMP:  25;

WASKISH        CLOUDY    23  21  93 NE3       30.04F
CROOKSTON      MOCLDY    25  21  86 N9        30.07F WCI  15
STEPHEN NDAWN    N/A     23  19  86 NE5         N/A  WCI  17
GREENBUSH NDAW   N/A     23  19  86 E3          N/A
$$
  *****  WEATHER ACROSS CENTRAL AND WEST MINNESOTA  *****

CITY           SKY/WX    TMP DP  RH WIND       PRES   REMARKS
FOSSTON        CLOUDY    21  21 100 N10       30.01F WCI  10
BEMIDJI        CLOUDY    25  24  98 NE10      30.00S WCI  15
6HR MIN TEMP:  24; 6HR MAX TEMP:  25;

PARK RAPIDS    CLOUDY    25  22  88 NE12      29.96F WCI  14
6HR MIN TEMP:  25; 6HR MAX TEMP:  25;

ELBOW LAKE     CLOUDY    25  24  99 NE9G16    29.95F FOG     WCI  15
6HR MIN TEMP:  24; 6HR MAX TEMP:  26;

WADENA         CLOUDY    25  25 100 NE9       29.94F WCI  15
DETROIT LAKES  CLOUDY    27  27 100 NE10      29.99R WCI  17
MOORHEAD       CLOUDY    25  21  86 N15       30.02S WCI  12
FERGUS FALLS   CLOUDY    25  25 100 NE10G20   29.98R WCI  15
MORRIS MN      CLOUDY    27  25  93 N15       29.91F WCI  15
STAPLES        CLOUDY    27  25  93 NE8       29.94S WCI  18
$$
  *****  WEATHER ELSEWHERE ACROSS MINNESOTA  *****

CITY           SKY/WX    TMP DP  RH WIND       PRES   REMARKS
DULUTH         LGT SNOW  25  23  92 E17       29.97F VSB 1   WCI  12
6HR MIN TEMP:  25; 6HR MAX TEMP:  28; 6HR PCP:  0.07;

INTRNTL FALLS  CLOUDY    20  16  84 NE6       30.08F WCI  12
6HR MIN TEMP:  20; 6HR MAX TEMP:  23;

ELY            CLOUDY    18  18 100 NE5       30.04S WCI  11
CLOQUET        LGT SNOW  27  23  86 E14G21    29.96S WCI  15
WHEATON        CLOUDY    25  23  93 N13G18    29.98S WCI  13
BRAINERD       CLOUDY    28  23  81 NE16      29.95F WCI  16
6HR MIN TEMP:  27; 6HR MAX TEMP:  30;

HIBBING        CLOUDY    24  23  96 E6        30.00F WCI  17
6HR MIN TEMP:  24; 6HR MAX TEMP:  26;

ALEXANDRIA     CLOUDY    26  25  96 NE14      29.91S FOG     WCI  14
6HR MIN TEMP:  24; 6HR MAX TEMP:  26;

SAINT CLOUD    CLOUDY    29  26  89 NE12G21   29.88F WCI  19
6HR MIN TEMP:  28; 6HR MAX TEMP:  30;

MINNEAPOLIS    CLOUDY    33  30  88 NE17G28   29.82F WCI  22
6HR MIN TEMP:  33; 6HR MAX TEMP:  35; 6HR PCP: TRACE;

$$

  *****  WEATHER ACROSS SOUTH DAKOTA  *****

CITY           SKY/WX    TMP DP  RH WIND       PRES   REMARKS
SIOUX FALLS    LGT SNOW  28  26  92 N30G39    29.71F BLWGSNOWWCI  12
6HR MIN TEMP:  28; 6HR MAX TEMP:  32; 6HR PCP:  0.03;

BROOKINGS      LGT SNOW  24  23  96 N21G29    29.80F FOG     WCI   9
WATERTOWN      FOG       22  22 100 N20       29.88R VSB 1   WCI   7
6HR MIN TEMP:  21; 6HR MAX TEMP:  24;

HURON          CLOUDY    22  21  96 N20G28    29.91R WCI   7
6HR MIN TEMP:  22; 6HR MAX TEMP:  26;

SISSETON         N/A     24  23  96 N16       29.96S WCI  11
ABERDEEN       CLOUDY    23  21  92 N18G25    29.98F WCI   9
6HR MIN TEMP:  23; 6HR MAX TEMP:  26;

MITCHELL       CLOUDY    25  23  92 N25G35    29.85R WCI   9
PIERRE         CLOUDY    22  22 100 N13       29.95F FOG     WCI  10
6HR MIN TEMP:  22; 6HR MAX TEMP:  27;

MOBRIDGE       FOG       22  20  92 N8        29.96F VSB 1/2 WCI  12
RAPID CITY     FAIR      24  15  68 N7        29.97R WCI  16
6HR MIN TEMP:  24; 6HR MAX TEMP:  30;

$$

  *****  SOME WEATHER IN NEARBY STATES *****

CITY           SKY/WX    TMP DP  RH WIND       PRES   REMARKS
GLASGOW MT     FAIR       8   5  87 E10       29.95S WCI  -6
6HR MIN TEMP:   3; 6HR MAX TEMP:  13;

GREAT FALLS MT FAIR      33  16  49 SW22G32   29.94R WCI  21
6HR MIN TEMP:  31; 6HR MAX TEMP:  34;

CHEYENNE WY    FAIR      20   7  57 NW20G26   29.94R WCI   4
6HR MIN TEMP:  16; 6HR MAX TEMP:  21;

SCOTTSBLUFF NE FAIR      19  12  74 W14       30.00R WCI   6
6HR MIN TEMP:  19; 6HR MAX TEMP:  27;

OMAHA NE       LGTSLEET  35  34  96 N12       29.44F FOG
6HR MIN TEMP:  36; 6HR MAX TEMP:  38; 6HR PCP:  0.10;

DES MOINES IA  CLOUDY    40  38  93 NE14      29.41S
6HR MIN TEMP:  39; 6HR MAX TEMP:  40; 6HR PCP:  0.31;

DAVENPORT IA   CLOUDY    46  44  93 N7        29.54R FOG
6HR MIN TEMP:  44; 6HR MAX TEMP:  49; 6HR PCP:  0.08;

CHICAGO IL     TSTM      47  46  97 SE8       29.64F FOG
6HR MIN TEMP:  43; 6HR MAX TEMP:  48; 6HR PCP:  0.40;

EAU CLAIRE WI  CLOUDY    34  29  82 NE15G28   29.78F WCI  24
6HR MIN TEMP:  34; 6HR MAX TEMP:  37;

LA CROSSE WI   RAIN      38  35  89 NE14G25   29.70F FOG
6HR MIN TEMP:  38; 6HR MAX TEMP:  40; 6HR PCP:  0.18;

$$

  *****  SOME NATIONAL WEATHER *****

CITY           SKY/WX    TMP DP  RH WIND       PRES   REMARKS
LA GUARDIA NY  CLOUDY    39  34  82 NE7       30.15S
6HR MIN TEMP:  38; 6HR MAX TEMP:  41; 6HR PCP: TRACE;

RALEIGH NC     MOCLDY    38  37  97 CALM      30.20R
6HR MIN TEMP:  38; 6HR MAX TEMP:  43;

ATLANTA GA     CLOUDY    47  42  83 SE3       30.11S
6HR MIN TEMP:  47; 6HR MAX TEMP:  53;

NEW ORLEANS LA CLOUDY    63  63 100 S5        29.97R
6HR MIN TEMP:  62; 6HR MAX TEMP:  66;

OKLAHOMA CITY  FAIR      36  24  62 W21       29.79R
6HR MIN TEMP:  36; 6HR MAX TEMP:  44;

ALBUQUERQUE NM FAIR      25  10  53 N15       30.16S WCI  13
6HR MIN TEMP:  25; 6HR MAX TEMP:  31;

SALT LAKE CITY FAIR      25  18  74 SE10      30.30R WCI  15
6HR MIN TEMP:  24; 6HR MAX TEMP:  28;

LOS ANGELES CA FAIR      47  33  58 E3        30.25F
6HR MIN TEMP:  46; 6HR M


USA.gov is the U.S. government's official web portal to all federal, state and local government web resources and services.